Retour au catalogue

ONEWEB-0362

ActifCommunicationsPO
NORAD 49288·PAYLOAD·🇬🇧 United Kingdom

Lancé Oct 14, 2021 depuis Vostochny Cosmodrome

Loading…

Prochains Passages (prochaines 24 heures)

TLE

FraisSource: CelesTrak SupGP

Époque: Sep 14, 2026, 19:35 UTC

1 49288C 21090K   26257.81613843 -.00000587  00000+0 -14671-2 0  2578
2 49288  87.9103 287.1213 0001722  91.2587  20.2495 13.19723719    15

Suivez ONEWEB-0362 en temps réel avec AllMySat

Download on the App Store